Flag for Germany Weather past 2 weeks in Kulmbach, Bavaria, Germany

Now
45 °F

Overcast.


Feels Like: 45 °F
Forecast: 36 / 58 °F
Wind: No wind

Location: Hof Airport

Current Time: Sep 23, 2014 at 11:16:49 PM

Latest Report: Sep 23, 2014 at 10:20 PM


Visibility: N/A

Pressure: 30.09 "Hg

Humidity: 87%

Dew point: 41 °F

Location of KulmbachLocation

Historic Weather in Kulmbach — Graph

°F

Kulmbach temperature yesterday

Maximum temperature yesterday: 52 °F (at 12:50 PM)
Minimum temperature yesterday: 45 °F (at 3:20 PM)
Average temperature yesterday: 47 °F

Past Weeks' High & Low Weather Summary

 TemperatureHumidityPressure
High72 °F (Sep 19, 1:20 PM)94% (Sep 8, 10:50 PM)30.18 "Hg (Sep 8, 10:50 PM)
Low45 °F (Sep 11, 3:50 AM)46% (Sep 16, 4:50 PM)29.92 "Hg (Sep 12, 7:50 AM)
Average55 °F85%30.04 "Hg
* Reported Sep 8 9:20 PM — Sep 23 9:50 PM, Kulmbach, Weather by CustomWeather, © 2014

Note: Actual official high and low records may vary slightly from our data, if they occured in-between our weather recording intervals... More about our weather records

Advertising

Kulmbach weather history for previous 24 hours

 ConditionsComfort  
Time TempWeatherWind HumidityBarometerVisibility
9:50 PM
Sep 23
46 °FOvercast.1 mph87%30.12 "HgN/A
9:20 PM46 °FOvercast.No wind87%30.12 "HgN/A
8:20 PM46 °FOvercast.5 mph87%30.12 "HgN/A
7:50 PM46 °FPartly sunny.2 mph87%30.09 "HgN/A
7:20 PM45 °FPartly sunny.3 mph87%30.09 "HgN/A
6:50 PM48 °FPartly sunny.5 mph76%30.09 "HgN/A
6:20 PM50 °FScattered clouds.5 mph71%30.09 "HgN/A
5:50 PM52 °FPartly sunny.6 mph62%30.09 "HgN/A
5:20 PM52 °FPartly sunny.6 mph62%30.09 "HgN/A
4:50 PM52 °FPartly sunny.5 mph62%30.12 "HgN/A
4:20 PM52 °FPartly sunny.7 mph58%30.12 "HgN/A
3:50 PM52 °FPartly sunny.7 mph58%30.12 "HgN/A
3:20 PM55 °FPartly sunny.8 mph51%30.12 "HgN/A
2:50 PM52 °FScattered clouds.7 mph54%30.12 "HgN/A
2:20 PM52 °FScattered clouds.8 mph50%30.15 "HgN/A
1:50 PM55 °FPartly sunny.10 mph51%30.15 "HgN/A
1:20 PM52 °FPartly sunny.9 mph54%30.15 "HgN/A
12:20 PM54 °FScattered clouds.9 mph58%30.15 "HgN/A
11:50 AM52 °FScattered clouds.9 mph58%30.15 "HgN/A
11:20 AM48 °FPartly sunny.12 mph66%30.15 "HgN/A
10:50 AM48 °FPartly sunny.8 mph71%30.15 "HgN/A
10:20 AM48 °FOvercast.8 mph71%30.15 "HgN/A
9:50 AM46 °FPartly sunny.9 mph76%30.15 "HgN/A
9:20 AM46 °FMore clouds than sun.9 mph82%30.12 "HgN/A
8:50 AM46 °FMostly cloudy.6 mph82%30.12 "HgN/A
8:20 AM45 °FPartly sunny.7 mph87%30.12 "HgN/A
7:50 AM45 °FOvercast.6 mph87%30.09 "HgN/A
7:20 AM45 °FOvercast.6 mph87%30.09 "HgN/A
6:50 AM45 °FMostly cloudy.7 mph87%30.09 "HgN/A
6:20 AM45 °FPartly cloudy.7 mph87%30.07 "HgN/A
5:50 AM45 °FDrizzle. Overcast.9 mph87%30.07 "HgN/A
5:20 AM45 °FPassing clouds.9 mph87%30.07 "HgN/A
4:50 AM45 °FLight rain. Mostly cloudy.7 mph87%30.07 "HgN/A
4:20 AM45 °FDrizzle. Mostly cloudy.8 mph87%30.07 "HgN/A
3:50 AM45 °FLight rain. Partly cloudy.9 mph87%30.07 "HgN/A
3:20 AM45 °FPassing clouds.10 mph87%30.07 "HgN/A
2:50 AM45 °FOvercast.10 mph87%30.07 "HgN/A
2:20 AM45 °FOvercast.9 mph93%30.04 "HgN/A
1:50 AM45 °FMostly cloudy.9 mph93%30.04 "HgN/A
1:20 AM45 °FDrizzle. Mostly cloudy.9 mph93%30.04 "Hg6 mi
12:50 AM45 °FPassing clouds.9 mph93%30.04 "Hg6 mi
12:20 AM45 °FLight rain. Passing clouds.10 mph93%30.04 "Hg2 mi
11:50 PM
Sep 22
45 °FPassing clouds.12 mph93%30.04 "Hg3 mi
11:20 PM45 °FPartly cloudy.9 mph93%30.04 "Hg2 mi
Weather by CustomWeather, © 2014

See weather overviewHow to use our weather pages